• In Belarus
  • List of Countries
  • For 7 days
  • Water Temperature
  • Satellite Maps
  • Weather Map
  • Weather Widgets
  • user-avatar
    Login

    Hourly Weather Ivano-Frankivs'k

    Today, 11 December, Monday

    Time Temperature Precipitation Wind Pressure Humidity
    00:00 -4°C° 0 mm 5 mps 730 mmHg 66%
    01:00 -4°C° 0 mm 5 mps 730 mmHg 64%
    02:00 -1°C° 0 mm 3 mps 729 mmHg 73%
    03:00 -2°C° 0 mm 4 mps 729 mmHg 73%
    04:00 -2°C° 0 mm 4 mps 729 mmHg 73%
    05:00 -2°C° 0 mm 5 mps 729 mmHg 72%
    06:00 -1°C° 0 mm 4 mps 729 mmHg 73%
    07:00 -1°C° 0 mm 4 mps 729 mmHg 74%
    08:00 0°C° 0 mm 4 mps 730 mmHg 75%
    09:00 +1°C° 0.1 mm 5 mps 730 mmHg 75%
    10:00 +2°C° 0.1 mm 5 mps 729 mmHg 76%
    11:00 +3°C° 0.1 mm 5 mps 729 mmHg 76%
    12:00 +5°C° 0.1 mm 5 mps 730 mmHg 77%
    13:00 +5°C° 0.1 mm 5 mps 730 mmHg 77%
    14:00 +6°C° 0.1 mm 5 mps 730 mmHg 77%
    15:00 +6°C° 0 mm 5 mps 730 mmHg 79%
    16:00 +6°C° 0 mm 5 mps 730 mmHg 80%
    17:00 +6°C° 0 mm 5 mps 730 mmHg 81%
    18:00 +6°C° 0 mm 5 mps 730 mmHg 80%
    19:00 +6°C° 0 mm 5 mps 730 mmHg 80%
    20:00 +6°C° 0 mm 5 mps 730 mmHg 79%
    21:00 +6°C° 0 mm 5 mps 731 mmHg 79%
    22:00 +6°C° 0 mm 5 mps 731 mmHg 79%
    23:00 +6°C° 0 mm 5 mps 731 mmHg 78%

    Tomorrow, 12 December, Tuesday

    Time Temperature Precipitation Wind Pressure Humidity
    00:00 +6°C° 0 mm 5 mps 731 mmHg 77%
    01:00 +6°C° 0 mm 5 mps 731 mmHg 76%
    02:00 +5°C° 0 mm 6 mps 731 mmHg 75%
    03:00 +5°C° 0 mm 6 mps 731 mmHg 74%
    04:00 +7°C° 0 mm 6 mps 732 mmHg 73%
    05:00 +7°C° 0 mm 6 mps 732 mmHg 73%
    06:00 +7°C° 0 mm 6 mps 732 mmHg 73%
    07:00 +7°C° 0 mm 5 mps 732 mmHg 74%
    08:00 +7°C° 0 mm 5 mps 733 mmHg 75%
    09:00 +8°C° 0 mm 5 mps 733 mmHg 73%
    10:00 +9°C° 0 mm 5 mps 733 mmHg 71%
    11:00 +10°C° 0 mm 5 mps 733 mmHg 68%
    12:00 +10°C° 0 mm 5 mps 734 mmHg 68%
    13:00 +12°C° 0 mm 5 mps 734 mmHg 67%
    14:00 +12°C° 0 mm 5 mps 734 mmHg 66%
    15:00 +10°C° 0 mm 5 mps 734 mmHg 70%
    16:00 +10°C° 0 mm 5 mps 735 mmHg 73%
    17:00 +9°C° 0 mm 5 mps 735 mmHg 76%
    18:00 +8°C° 0 mm 4 mps 735 mmHg 77%
    19:00 +8°C° 0 mm 4 mps 735 mmHg 78%
    20:00 +8°C° 0 mm 4 mps 736 mmHg 79%
    21:00 +7°C° 0 mm 4 mps 736 mmHg 79%
    22:00 +7°C° 0 mm 4 mps 736 mmHg 79%
    23:00 +7°C° 0 mm 4 mps 736 mmHg 79%

    Day after tomorrow, 13 December, Wednesday

    Time Temperature Precipitation Wind Pressure Humidity
    00:00 +8°C° 0 mm 3 mps 736 mmHg 80%
    01:00 +7°C° 0 mm 3 mps 736 mmHg 81%
    02:00 +7°C° 0 mm 2 mps 737 mmHg 82%
    03:00 +7°C° 0.1 mm 3 mps 737 mmHg 84%
    04:00 +5°C° 0.1 mm 3 mps 737 mmHg 86%
    05:00 +4°C° 0.1 mm 3 mps 737 mmHg 88%
    06:00 +4°C° 0.4 mm 3 mps 737 mmHg 88%
    07:00 +3°C° 0.4 mm 3 mps 738 mmHg 89%
    08:00 +3°C° 0.4 mm 4 mps 738 mmHg 89%
    09:00 +3°C° 0.8 mm 3 mps 738 mmHg 89%
    10:00 +2°C° 0.8 mm 3 mps 739 mmHg 88%
    11:00 +2°C° 0.8 mm 3 mps 739 mmHg 88%
    12:00 +2°C° 0.3 mm 3 mps 739 mmHg 87%
    13:00 +3°C° 0.3 mm 2 mps 739 mmHg 86%
    14:00 +3°C° 0.3 mm 2 mps 739 mmHg 85%
    15:00 +3°C° 0 mm 2 mps 739 mmHg 87%
    16:00 +3°C° 0 mm 1 mps 739 mmHg 88%
    17:00 +3°C° 0 mm 1 mps 739 mmHg 90%
    18:00 +3°C° 0 mm 1 mps 739 mmHg 90%
    19:00 +2°C° 0 mm 1 mps 739 mmHg 91%
    20:00 +2°C° 0 mm 1 mps 739 mmHg 91%
    21:00 +2°C° 0 mm 1 mps 739 mmHg 92%
    22:00 +2°C° 0 mm 1 mps 738 mmHg 92%
    23:00 +2°C° 0 mm 1 mps 738 mmHg 92%

    14 December, Thursday

    Time Temperature Precipitation Wind Pressure Humidity
    00:00 +2°C° 0 mm 1 mps 738 mmHg 93%
    01:00 +1°C° 0 mm 2 mps 737 mmHg 93%
    02:00 +1°C° 0 mm 2 mps 737 mmHg 93%
    03:00 -1°C° 0 mm 2 mps 737 mmHg 93%
    04:00 -1°C° 0 mm 2 mps 736 mmHg 93%
    05:00 -1°C° 0 mm 2 mps 736 mmHg 93%
    06:00 -1°C° 0 mm 2 mps 736 mmHg 92%
    07:00 -1°C° 0 mm 2 mps 736 mmHg 91%
    08:00 -1°C° 0 mm 2 mps 735 mmHg 90%
    09:00 +1°C° 0 mm 2 mps 735 mmHg 86%
    10:00 +1°C° 0 mm 3 mps 735 mmHg 82%
    11:00 +2°C° 0 mm 3 mps 735 mmHg 77%
    12:00 +3°C° 0 mm 3 mps 734 mmHg 75%
    13:00 +4°C° 0 mm 3 mps 734 mmHg 74%
    14:00 +4°C° 0 mm 3 mps 734 mmHg 72%
    15:00 +4°C° 0 mm 3 mps 733 mmHg 74%
    16:00 +3°C° 0 mm 3 mps 733 mmHg 77%
    17:00 +2°C° 0 mm 3 mps 733 mmHg 80%
    18:00 +2°C° 0.1 mm 3 mps 732 mmHg 80%
    19:00 +2°C° 0.1 mm 3 mps 732 mmHg 79%
    20:00 +3°C° 0.1 mm 4 mps 731 mmHg 79%
    21:00 +3°C° 0.3 mm 4 mps 731 mmHg 79%
    22:00 +3°C° 0.3 mm 4 mps 730 mmHg 80%
    23:00 +3°C° 0.3 mm 4 mps 730 mmHg 80%

    15 December, Friday

    Time Temperature Precipitation Wind Pressure Humidity
    00:00 +3°C° 0 mm 4 mps 729 mmHg 80%
    01:00 +3°C° 0 mm 4 mps 729 mmHg 80%
    02:00 +3°C° 0 mm 4 mps 729 mmHg 79%
    03:00 +3°C° 0 mm 4 mps 728 mmHg 79%
    04:00 +4°C° 0 mm 4 mps 728 mmHg 79%
    05:00 +3°C° 0 mm 5 mps 727 mmHg 79%
    06:00 +3°C° 0 mm 5 mps 728 mmHg 78%
    07:00 +5°C° 0 mm 5 mps 728 mmHg 78%
    08:00 +5°C° 0 mm 5 mps 728 mmHg 77%
    09:00 +5°C° 0 mm 6 mps 729 mmHg 76%
    10:00 +5°C° 0 mm 6 mps 730 mmHg 74%
    11:00 +7°C° 0 mm 6 mps 730 mmHg 73%
    12:00 +7°C° 0 mm 5 mps 730 mmHg 74%
    13:00 +8°C° 0 mm 3 mps 730 mmHg 75%
    14:00 +8°C° 0 mm 2 mps 730 mmHg 76%
    15:00 +7°C° 0.2 mm 2 mps 730 mmHg 80%
    16:00 +7°C° 0.2 mm 2 mps 729 mmHg 83%
    17:00 +6°C° 0.2 mm 2 mps 729 mmHg 87%
    18:00 +6°C° 0.5 mm 2 mps 728 mmHg 87%
    19:00 +6°C° 0.5 mm 2 mps 727 mmHg 88%
    20:00 +6°C° 0.5 mm 2 mps 727 mmHg 89%
    21:00 +5°C° 0.2 mm 3 mps 726 mmHg 87%
    22:00 +5°C° 0.2 mm 3 mps 725 mmHg 85%
    23:00 +5°C° 0.2 mm 3 mps 724 mmHg 82%

    16 December, Saturday

    Time Temperature Precipitation Wind Pressure Humidity
    00:00 +6°C° 0.3 mm 4 mps 724 mmHg 82%
    01:00 +6°C° 0.3 mm 4 mps 724 mmHg 81%
    02:00 +6°C° 0.3 mm 4 mps 724 mmHg 80%
    03:00 +6°C° 0 mm 5 mps 724 mmHg 79%
    04:00 +7°C° 0 mm 5 mps 724 mmHg 78%
    05:00 +7°C° 0 mm 5 mps 724 mmHg 77%
    06:00 +6°C° 0.1 mm 5 mps 725 mmHg 78%
    07:00 +6°C° 0.1 mm 5 mps 726 mmHg 79%
    08:00 +6°C° 0.1 mm 4 mps 726 mmHg 81%
    09:00 +5°C° 0.2 mm 4 mps 727 mmHg 83%
    10:00 +5°C° 0.2 mm 3 mps 728 mmHg 85%
    11:00 +4°C° 0.2 mm 3 mps 728 mmHg 87%
    12:00 +5°C° 0.7 mm 2 mps 728 mmHg 88%
    13:00 +4°C° 0.7 mm 2 mps 728 mmHg 89%
    14:00 +4°C° 0.7 mm 2 mps 728 mmHg 90%
    15:00 +4°C° 0.4 mm 2 mps 729 mmHg 91%
    16:00 +4°C° 0.4 mm 2 mps 729 mmHg 92%
    17:00 +4°C° 0.4 mm 1 mps 730 mmHg 93%
    18:00 +3°C° 0.3 mm 2 mps 730 mmHg 94%
    19:00 +3°C° 0.3 mm 2 mps 731 mmHg 94%
    20:00 +3°C° 0.3 mm 2 mps 731 mmHg 95%
    21:00 +3°C° 0.2 mm 2 mps 732 mmHg 95%
    22:00 +3°C° 0.2 mm 2 mps 733 mmHg 94%
    23:00 +3°C° 0.2 mm 2 mps 733 mmHg 94%
    Show more